Time,TemperatureF,DewpointF,PressureIn,WindDirection,WindDirectionDegrees,WindSpeedMPH,WindSpeedGustMPH,Humidity,HourlyPrecipIn,Conditions,Clouds,dailyrainin,SoftwareType,DateUTC
2013-09-04 00:11:00,60.0,54.0,30.01,WNW,298,0.0,1.0,80,0.00,,,0.00,,2013-09-04 07:11:00,
2013-09-04 00:22:00,59.0,53.0,30.01,WNW,298,0.0,1.0,81,0.00,,,0.00,,2013-09-04 07:22:00,
2013-09-04 00:42:00,59.0,54.0,30.01,WNW,298,0.0,1.0,82,0.00,,,0.00,,2013-09-04 07:42:00,
2013-09-04 00:52:00,58.0,53.0,30.01,WNW,298,0.0,2.0,82,0.00,,,0.00,,2013-09-04 07:52:00,
2013-09-04 01:12:00,58.0,53.0,30.01,WNW,298,0.0,1.0,84,0.00,,,0.00,,2013-09-04 08:12:00,
2013-09-04 01:22:00,58.0,54.0,30.01,ENE,66,0.0,1.0,85,0.00,,,0.00,,2013-09-04 08:22:00,
2013-09-04 01:43:00,57.0,53.0,30.01,ENE,66,0.0,1.0,86,0.00,,,0.00,,2013-09-04 08:43:00,
2013-09-04 01:52:00,57.0,53.0,30.01,ENE,66,0.0,1.0,86,0.00,,,0.00,,2013-09-04 08:52:00,
2013-09-04 02:11:00,57.0,53.0,30.01,ENE,66,0.0,2.0,87,0.00,,,0.00,,2013-09-04 09:11:00,
2013-09-04 02:22:00,56.0,52.0,30.01,ENE,66,1.0,2.0,88,0.00,,,0.00,,2013-09-04 09:22:00,
2013-09-04 02:43:00,56.0,52.0,30.01,ENE,66,1.0,1.0,88,0.00,,,0.00,,2013-09-04 09:43:00,
2013-09-04 02:53:00,56.0,52.0,30.01,ENE,66,0.0,1.0,88,0.00,,,0.00,,2013-09-04 09:53:00,
2013-09-04 03:12:00,56.0,53.0,30.01,ENE,66,1.0,1.0,89,0.00,,,0.00,,2013-09-04 10:12:00,
2013-09-04 03:23:00,56.0,53.0,30.01,ENE,66,0.0,1.0,89,0.00,,,0.00,,2013-09-04 10:23:00,
2013-09-04 03:42:00,56.0,53.0,30.01,ENE,66,1.0,2.0,90,0.00,,,0.00,,2013-09-04 10:42:00,
2013-09-04 03:52:00,56.0,53.0,30.02,ENE,66,1.0,1.0,90,0.00,,,0.00,,2013-09-04 10:52:00,
2013-09-04 04:12:00,56.0,53.0,30.02,ENE,66,0.0,1.0,90,0.00,,,0.00,,2013-09-04 11:12:00,
2013-09-04 04:22:00,56.0,53.0,30.02,ENE,66,1.0,1.0,90,0.00,,,0.00,,2013-09-04 11:22:00,
2013-09-04 04:51:00,55.0,52.0,30.02,ENE,66,0.0,1.0,91,0.00,,,0.00,,2013-09-04 11:51:00,
2013-09-04 05:11:00,55.0,53.0,30.01,ENE,66,0.0,1.0,92,0.00,,,0.00,,2013-09-04 12:11:00,
2013-09-04 05:21:00,55.0,53.0,30.02,ENE,66,0.0,1.0,93,0.00,,,0.00,,2013-09-04 12:21:00,
2013-09-04 05:42:00,55.0,53.0,30.02,ENE,66,0.0,1.0,93,0.00,,,0.00,,2013-09-04 12:42:00,
2013-09-04 05:52:00,54.0,52.0,30.02,ENE,66,0.0,1.0,93,0.00,,,0.00,,2013-09-04 12:52:00,
2013-09-04 06:11:00,54.0,52.0,30.02,ENE,66,0.0,1.0,94,0.00,,,0.00,,2013-09-04 13:11:00,
2013-09-04 06:21:00,54.0,53.0,30.02,ENE,66,0.0,1.0,95,0.00,,,0.00,,2013-09-04 13:21:00,
2013-09-04 06:52:00,54.0,53.0,30.03,ENE,66,0.0,1.0,95,0.00,,,0.00,,2013-09-04 13:52:00,
2013-09-04 07:11:00,54.0,53.0,30.03,ENE,66,0.0,1.0,95,0.00,,,0.00,,2013-09-04 14:11:00,
2013-09-04 07:21:00,54.0,53.0,30.04,ENE,66,0.0,1.0,95,0.00,,,0.00,,2013-09-04 14:21:00,
2013-09-04 07:42:00,54.0,53.0,30.04,ENE,66,1.0,2.0,96,0.00,,,0.00,,2013-09-04 14:42:00,
2013-09-04 07:51:00,54.0,53.0,30.04,ENE,66,1.0,2.0,96,0.00,,,0.00,,2013-09-04 14:51:00,
2013-09-04 08:12:00,55.0,54.0,30.05,WSW,238,1.0,3.0,96,0.00,,,0.00,,2013-09-04 15:12:00,
2013-09-04 08:22:00,56.0,55.0,30.06,WSW,238,0.0,3.0,95,0.00,,,0.00,,2013-09-04 15:22:00,
2013-09-04 08:43:00,56.0,55.0,30.06,WSW,250,1.0,4.0,95,0.00,,,0.00,,2013-09-04 15:43:00,
2013-09-04 08:53:00,58.0,56.0,30.06,West,275,1.0,3.0,92,0.00,,,0.00,,2013-09-04 15:53:00,
2013-09-04 09:12:00,60.0,56.0,30.06,WSW,252,1.0,3.0,87,0.00,,,0.00,,2013-09-04 16:12:00,
2013-09-04 09:23:00,62.0,57.0,30.06,WSW,239,2.0,4.0,83,0.00,,,0.00,,2013-09-04 16:23:00,
2013-09-04 09:43:00,62.0,56.0,30.07,SW,223,2.0,6.0,80,0.00,,,0.00,,2013-09-04 16:43:00,
2013-09-04 09:53:00,64.0,57.0,30.07,West,273,1.0,5.0,79,0.00,,,0.00,,2013-09-04 16:53:00,
2013-09-04 10:13:00,65.0,57.0,30.07,WSW,244,1.0,5.0,75,0.00,,,0.00,,2013-09-04 17:13:00,
2013-09-04 10:22:00,66.0,57.0,30.07,SW,233,2.0,5.0,72,0.00,,,0.00,,2013-09-04 17:22:00,
2013-09-04 10:42:00,67.0,57.0,30.07,SSW,199,1.0,5.0,70,0.00,,,0.00,,2013-09-04 17:42:00,
2013-09-04 10:52:00,67.0,57.0,30.07,SSW,199,1.0,5.0,70,0.00,,,0.00,,2013-09-04 17:52:00,
2013-09-04 11:12:00,69.0,57.0,30.07,NW,310,2.0,7.0,65,0.00,,,0.00,,2013-09-04 18:12:00,
2013-09-04 11:21:00,70.0,56.0,30.08,WSW,240,3.0,6.0,62,0.00,,,0.00,,2013-09-04 18:21:00,
2013-09-04 11:42:00,72.0,57.0,30.07,WSW,257,2.0,5.0,59,0.00,,,0.00,,2013-09-04 18:42:00,
2013-09-04 11:52:00,72.0,56.0,30.07,WNW,294,2.0,11.0,57,0.00,,,0.00,,2013-09-04 18:52:00,
2013-09-04 12:11:00,74.0,57.0,30.07,West,274,1.0,4.0,56,0.00,,,0.00,,2013-09-04 19:11:00,
2013-09-04 12:22:00,75.0,56.0,30.06,WNW,286,2.0,5.0,52,0.00,,,0.00,,2013-09-04 19:22:00,
2013-09-04 12:42:00,76.0,57.0,30.06,West,259,3.0,6.0,51,0.00,,,0.00,,2013-09-04 19:42:00,
2013-09-04 12:52:00,76.0,56.0,30.06,North,360,2.0,6.0,50,0.00,,,0.00,,2013-09-04 19:52:00,
2013-09-04 13:11:00,77.0,55.0,30.05,WSW,247,2.0,6.0,47,0.00,,,0.00,,2013-09-04 20:11:00,
2013-09-04 13:22:00,78.0,54.0,30.05,South,173,2.0,5.0,43,0.00,,,0.00,,2013-09-04 20:22:00,
2013-09-04 13:43:00,80.0,55.0,30.05,WNW,292,2.0,6.0,43,0.00,,,0.00,,2013-09-04 20:43:00,
2013-09-04 13:53:00,80.0,55.0,30.05,West,268,2.0,6.0,43,0.00,,,0.00,,2013-09-04 20:53:00,
2013-09-04 14:11:00,81.0,54.0,30.05,SW,222,3.0,5.0,40,0.00,,,0.00,,2013-09-04 21:11:00,
2013-09-04 14:22:00,81.0,54.0,30.04,SSW,196,3.0,7.0,39,0.00,,,0.00,,2013-09-04 21:22:00,
2013-09-04 14:44:00,82.0,54.0,30.04,SW,234,3.0,8.0,38,0.00,,,0.00,,2013-09-04 21:44:00,
2013-09-04 14:54:00,82.0,54.0,30.03,NW,313,2.0,8.0,38,0.00,,,0.00,,2013-09-04 21:54:00,
2013-09-04 15:14:00,83.0,53.0,30.03,WSW,237,3.0,7.0,36,0.00,,,0.00,,2013-09-04 22:14:00,
2013-09-04 15:23:00,83.0,52.0,30.02,SW,232,2.0,7.0,35,0.00,,,0.00,,2013-09-04 22:23:00,
2013-09-04 15:54:00,83.0,55.0,30.01,WNW,290,3.0,4.0,38,0.00,,,0.00,,2013-09-04 22:54:00,
2013-09-04 16:12:00,83.0,55.0,30.01,SW,218,2.0,12.0,39,0.00,,,0.00,,2013-09-04 23:12:00,
2013-09-04 16:22:00,82.0,55.0,30.01,WSW,255,4.0,8.0,40,0.00,,,0.00,,2013-09-04 23:22:00,
2013-09-04 16:42:00,81.0,55.0,30.00,WNW,288,3.0,9.0,41,0.00,,,0.00,,2013-09-04 23:42:00,
2013-09-04 16:52:00,81.0,55.0,30.00,WNW,286,3.0,8.0,41,0.00,,,0.00,,2013-09-04 23:52:00,
2013-09-04 17:11:00,81.0,55.0,29.99,WSW,252,2.0,9.0,41,0.00,,,0.00,,2013-09-05 00:11:00,
2013-09-04 17:22:00,80.0,55.0,29.99,WSW,240,3.0,6.0,43,0.00,,,0.00,,2013-09-05 00:22:00,
2013-09-04 17:42:00,79.0,56.0,29.99,WNW,285,2.0,5.0,45,0.00,,,0.00,,2013-09-05 00:42:00,
2013-09-04 17:52:00,79.0,56.0,29.98,WNW,282,1.0,5.0,46,0.00,,,0.00,,2013-09-05 00:52:00,
2013-09-04 18:11:00,78.0,57.0,29.98,WNW,302,2.0,6.0,48,0.00,,,0.00,,2013-09-05 01:11:00,
2013-09-04 18:21:00,77.0,56.0,29.98,SW,232,3.0,7.0,48,0.00,,,0.00,,2013-09-05 01:21:00,
2013-09-04 18:42:00,77.0,56.0,29.98,SW,224,2.0,4.0,49,0.00,,,0.00,,2013-09-05 01:42:00,
2013-09-04 18:52:00,76.0,57.0,29.98,SSW,208,2.0,6.0,51,0.00,,,0.00,,2013-09-05 01:52:00,
2013-09-04 19:11:00,74.0,56.0,29.98,WNW,292,2.0,5.0,53,0.00,,,0.00,,2013-09-05 02:11:00,
2013-09-04 19:21:00,73.0,56.0,29.98,WNW,300,2.0,4.0,55,0.00,,,0.00,,2013-09-05 02:21:00,
2013-09-04 20:11:00,70.0,55.0,29.98,WNW,300,1.0,3.0,60,0.00,,,0.00,,2013-09-05 03:11:00,
2013-09-04 20:22:00,69.0,55.0,29.98,NW,306,0.0,2.0,61,0.00,,,0.00,,2013-09-05 03:22:00,
2013-09-04 20:45:00,68.0,53.0,29.98,East,86,1.0,3.0,58,0.00,,,0.00,,2013-09-05 03:45:00,
2013-09-04 20:54:00,68.0,53.0,29.98,WSW,254,1.0,3.0,58,0.00,,,0.00,,2013-09-05 03:54:00,
2013-09-04 21:13:00,67.0,53.0,29.99,WNW,300,1.0,3.0,60,0.00,,,0.00,,2013-09-05 04:13:00,
2013-09-04 21:24:00,67.0,53.0,29.99,WNW,292,1.0,2.0,61,0.00,,,0.00,,2013-09-05 04:24:00,
2013-09-04 21:44:00,66.0,53.0,29.99,WSW,250,1.0,3.0,63,0.00,,,0.00,,2013-09-05 04:44:00,
2013-09-04 21:53:00,65.0,53.0,30.00,SW,223,1.0,3.0,64,0.00,,,0.00,,2013-09-05 04:53:00,
2013-09-04 22:12:00,65.0,53.0,30.00,WSW,238,1.0,3.0,66,0.00,,,0.00,,2013-09-05 05:12:00,
2013-09-04 22:23:00,64.0,53.0,30.00,WSW,250,1.0,2.0,67,0.00,,,0.00,,2013-09-05 05:23:00,
2013-09-04 22:43:00,64.0,54.0,30.00,WSW,238,1.0,2.0,69,0.00,,,0.00,,2013-09-05 05:43:00,
2013-09-04 22:52:00,63.0,53.0,30.00,SE,142,0.0,3.0,70,0.00,,,0.00,,2013-09-05 05:52:00,
2013-09-04 23:12:00,62.0,53.0,30.00,WSW,242,0.0,3.0,73,0.00,,,0.00,,2013-09-05 06:12:00,
2013-09-04 23:21:00,62.0,54.0,30.01,WSW,242,0.0,1.0,74,0.00,,,0.00,,2013-09-05 06:21:00,
2013-09-04 23:42:00,61.0,53.0,30.01,SW,218,0.0,2.0,75,0.00,,,0.00,,2013-09-05 06:42:00,
2013-09-04 23:52:00,61.0,53.0,30.01,West,266,1.0,3.0,76,0.00,,,0.00,,2013-09-05 06:52:00,